#timestamp,LO_Frequency,Hit,StdDev 
1606579215.5,286046996.6,N
1606579235.3,286046996.6,N
1606579255.2,286046995.6,Y
1606579275.9,286046997.4,P
1606579295.7,286046999.5,N
1606579315.6,286046999.1,N
1606579335.4,286046997.1,Y
1606579355.2,286047000.7,P
1606579375.1,286046999.1,N
1606579376.0,286046999.1,N
1606579395.8,286046998.4,N
1606579415.6,286046996.8,Y
1606579435.5,286046996.5,P
1606579455.3,286046999.5,N
1606579475.1,286046996.9,N
1606579495.9,286046996.6,N
1606579515.7,286046996.8,N
1606579535.5,286046999.1,N
1606579555.4,286046999.4,N
1606579575.2,286046997.3,N
1606579595.0,286046997.4,N
1606579595.9,286046997.4,N
1606579615.8,286046997.2,N
1606579635.6,286046997.6,N
1606579655.4,286046995.1,Y
1606579675.3,286046999.1,P
1606579695.1,286046996.5,P
1606579696.0,286046996.5,P
1606579715.8,286047001.2,N
1606579735.7,286046998.3,N
1606579755.5,286046998.4,N
1606579775.3,286046998.9,N
1606579795.2,286046998.7,N
1606579815.9,286046998.4,N
1606579835.7,286046996.5,N
1606579855.6,286046997.1,N
1606579875.4,286046997.3,N
1606579895.2,286046997.9,N
1606579915.1,286046997.4,N
1606579916.0,286046997.4,N
1606579935.8,286046995.9,Y
1606579955.6,286046996.9,P
1606579975.5,286046996.6,P
1606579995.3,286046996.7,P
1606580015.1,286046996.8,Y
1606580035.9,286047004.3,P
1606580055.7,286047002.5,N
1606580075.5,286047001.0,N
1606580095.4,286047000.7,N
1606580115.2,286047000.7,N
1606580135.0,286047000.7,N
1606580135.9,286047000.7,N
1606580155.8,286047000.1,N
1606580175.6,286047000.7,N
1606580195.4,286047001.0,N
1606580215.3,286046998.2,N
1606580235.1,286046998.6,N
1606580236.0,286046998.6,N
1606580255.8,286046998.3,N
1606580275.7,286046999.0,N
1606580295.5,286046996.6,N
1606580315.3,286046997.1,N
1606580335.2,286046996.5,N
1606580355.9,286046996.5,N
1606580375.7,286046997.0,N
1606580395.6,286046997.1,N
1606580415.4,286046997.3,N
1606580435.2,286046997.1,N
1606580455.1,286046996.7,N
1606580456.0,286046996.7,N
1606580475.8,286046996.7,N
1606580495.6,286046996.8,N
1606580515.5,286046997.7,N
1606580535.3,286046996.7,N
1606580555.1,286046999.1,N
1606580575.9,286046997.3,N
1606580595.7,286046997.1,N
1606580615.5,286046996.8,N
1606580635.4,286046996.9,N
1606580655.2,286046996.8,N
1606580675.0,286046997.5,N
1606580675.9,286046997.5,N
1606580695.8,286046995.6,Y
1606580715.6,286046999.6,P
1606580735.4,286046998.7,N
1606580755.3,286046996.6,P
1606580775.1,286046999.5,N
1606580806.0,286046998.2,E
1606580815.1,286047000.8,N
1606580816.0,286047000.8,P
1606580835.8,286046999.8,P
1606580855.6,286047001.8,Y
1606580875.5,286047002.8,P
1606580895.3,286047000.0,N
1606580915.1,286047002.1,N
1606580935.9,286047002.3,N
1606580955.7,286047000.3,N
1606580975.5,286047002.5,N
1606580995.4,286047001.9,N
1606581015.2,286047002.2,N
1606581035.0,286047002.8,N
1606581035.9,286047002.8,N
1606581055.8,286047002.1,N
1606581075.6,286047002.3,N
1606581095.4,286046999.7,N
1606581115.3,286047000.3,N
1606581135.1,286046998.1,N
1606581136.0,286046998.1,N
1606581155.8,286046998.5,N
1606581175.7,286047000.6,N
1606581195.5,286047000.6,N
1606581215.3,286047000.5,N
1606581235.2,286047000.5,N
1606581255.9,286047000.9,N
1606581275.7,286047000.2,N
1606581295.6,286046999.8,N
1606581315.4,286047001.4,N
1606581335.2,286047002.4,N
1606581355.1,286047002.4,N
1606581356.0,286047002.4,N
1606581375.8,286047001.4,N
1606581395.6,286047002.0,N
1606581415.5,286047001.5,N
1606581435.3,286047002.6,N
1606581455.1,286047001.7,N
1606581475.9,286047003.9,N
1606581495.7,286047001.3,N
1606581515.5,286047003.9,N
1606581535.4,286047001.4,N
1606581555.2,286047001.9,N
1606581575.0,286047000.1,N
1606581575.9,286047000.1,N
1606581595.8,286047002.6,N
1606581615.6,286047001.4,N
1606581635.4,286047001.6,N
1606581655.3,286047002.1,N
1606581675.1,286047002.4,N
1606581676.0,286047002.4,N
1606581695.8,286047002.1,N
1606581715.7,286047002.7,N
1606581735.5,286047003.9,Y
1606581755.3,286047002.6,P
1606581775.2,286047000.3,N
1606581795.9,286046999.9,N
1606581815.7,286047000.1,N
1606581835.6,286047000.3,N
1606581855.4,286046998.2,N
1606581875.2,286047000.6,N
1606581895.1,286046998.2,N
1606581896.0,286046998.2,N
1606581915.8,286046998.8,N
1606581935.6,286046998.2,N
1606581955.5,286046998.9,N
1606581975.3,286046998.3,N
1606581995.1,286046998.3,N
1606582015.9,286046998.3,N
1606582035.7,286047001.2,N
1606582055.5,286046998.9,N
1606582075.4,286046999.3,N
1606582095.2,286046999.3,N
1606582115.0,286046999.2,N
1606582115.9,286046999.2,N
1606582135.8,286046998.8,N
1606582155.6,286046998.1,N
1606582175.4,286046998.8,N
1606582195.3,286046998.5,N
1606582215.1,286047001.2,N
1606582216.0,286047001.2,N
1606582235.8,286046998.6,N
1606582255.7,286046998.2,N
1606582275.5,286046998.9,N
1606582295.3,286046999.1,N
1606582315.2,286046997.1,Y
1606582335.9,286046997.1,P
1606582355.7,286046997.0,N
1606582375.6,286046997.6,N
1606582395.4,286046997.5,N
1606582415.2,286046997.0,Y
1606582435.1,286047001.1,P
1606582436.0,286047001.1,N
1606582455.8,286047001.1,N
1606582475.6,286047001.1,N
1606582495.5,286046998.4,N
1606582515.3,286046998.4,N
1606582535.1,286046999.0,N
1606582555.9,286046998.7,N
1606582575.7,286047000.5,N
1606582595.5,286047002.7,N
1606582615.4,286047000.4,N
1606582635.2,286046999.3,N
1606582655.0,286046999.2,N
1606582655.9,286046999.2,N
1606582705.8,286046998.4,E
1606582715.7,286047000.8,N
1606582735.5,286046999.7,P
1606582755.4,286047002.2,P
1606582775.2,286047000.9,N
1606582795.0,286047000.1,N
1606582795.9,286047000.1,N
